sat.trackr.live / text

‹ back to catalog

STARLINK-3162

NORAD 49411 · 2021-104D

PAYLOAD ACTIVE UNKNOWN

§ Identity

Operator
Country
US
Launch date
2021-11-13
Launch site
AFETR
Launch vehicle
Mass (kg)
RCS (m²)

Purposes: comms

External: N2YO · Heavens-Above · Gunter

§ Orbital elements

Epoch: 2026-09-20T01:48:27.470880Z

Period
93.85 min
Inclination
53.1620°
Eccentricity
0.0001668
Mean motion
15.34379177 rev/d
Perigee alt
461.6 km
Apogee alt
463.9 km
Semi-major
6,840.9 km
B*
-1.1067e-5
RAAN
54.0569°
Arg perigee
63.5430°
Mean anomaly
296.5743°
Rev number
26,828

§ Raw data

STARLINK-31621 49411U 21104D   26263.07531795 -.00000750  00000+0 -11067-4 0  99952 49411  53.1620  54.0569 0001668  63.5430 296.5743 15.34379177268288

JSON: /api/v1/satellites/49411 · /tle

For live sub-satellite position, see the globe view (requires WebGL).

§ Visibility from observer

Set your observer location to see the next 7 days of passes ≥ 10°. The values pass through the URL so the page stays shareable.

No JS? Fill the form by hand. The geolocation button needs JavaScript.